| time (UTC) | temp F | wind direction | speed MPH | gust MPH | rain 1hr in | rain 24hr in | rain mn in | humidity % | barometer mb |
| 20260507195404 | 60 | 143 | 1.0 | 8.0 | 0.00 | 0.00 | 0.00 | 66 | 1014.5 |
| 20260507194504 | 60 | 149 | 1.0 | 6.0 | 0.00 | 0.00 | 0.00 | 69 | 1014.3 |
| 20260507193604 | 61 | 3 | 0.0 | 5.0 | 0.00 | 0.00 | 0.00 | 68 | 1014.1 |
| 20260507192704 | 61 | 2 | 0.0 | 5.0 | 0.00 | 0.00 | 0.00 | 69 | 1013.8 |
| 20260507191803 | 61 | 22 | 2.0 | 9.0 | 0.00 | 0.00 | 0.00 | 69 | 1013.4 |
| 20260507191118 | 62 | 8 | 2.0 | 9.0 | 0.00 | 0.00 | 0.00 | 70 | 1013.3 |
| 20260507190005 | 61 | 287 | 1.0 | 9.0 | 0.00 | 0.00 | 0.00 | 74 | 1012.8 |
| 20260507185403 | 62 | 282 | 0.0 | 7.0 | 0.00 | 0.00 | 0.00 | 74 | 1012.6 |
| 20260507184504 | 62 | 277 | 0.0 | 6.0 | 0.00 | 0.00 | 0.00 | 73 | 1012.2 |
| 20260507183603 | 63 | 262 | 0.0 | 4.0 | 0.00 | 0.00 | 0.00 | 72 | 1011.8 |
| 20260507182703 | 63 | 229 | 2.0 | 8.0 | 0.00 | 0.00 | 0.00 | 71 | 1011.6 |
| 20260507182021 | 63 | 208 | 3.0 | 8.0 | 0.00 | 0.00 | 0.00 | 71 | 1011.5 |
| 20260507180903 | 64 | 191 | 2.0 | 6.0 | 0.00 | 0.00 | 0.00 | 70 | 1011.3 |
| 20260507180004 | 64 | 175 | 3.0 | 12.0 | 0.00 | 0.00 | 0.00 | 69 | 1011.4 |
| 20260507175617 | 64 | 181 | 3.0 | 12.0 | 0.00 | 0.00 | 0.00 | 69 | 1011.3 |
| 20260507174504 | 65 | 187 | 3.0 | 7.0 | 0.00 | 0.00 | 0.00 | 68 | 1011.2 |
| 20260507173603 | 65 | 208 | 3.0 | 8.0 | 0.00 | 0.00 | 0.00 | 67 | 1011.2 |
| 20260507172703 | 65 | 227 | 2.0 | 8.0 | 0.00 | 0.00 | 0.00 | 66 | 1011.1 |
| 20260507171804 | 65 | 244 | 1.0 | 7.0 | 0.00 | 0.00 | 0.00 | 65 | 1010.9 |
| 20260507170903 | 66 | 248 | 3.0 | 13.0 | 0.00 | 0.00 | 0.00 | 64 | 1010.9 |
| 20260507170221 | 67 | 255 | 2.0 | 9.0 | 0.00 | 0.00 | 0.00 | 64 | 1010.9 |
| 20260507165403 | 67 | 261 | 3.0 | 10.0 | 0.00 | 0.00 | 0.00 | 64 | 1010.9 |
| 20260507164720 | 67 | 259 | 1.0 | 11.0 | 0.00 | 0.00 | 0.00 | 65 | 1010.8 |
| 20260507163603 | 67 | 184 | 2.0 | 12.0 | 0.00 | 0.00 | 0.00 | 62 | 1010.8 |
| 20260507162920 | 67 | 246 | 1.0 | 7.0 | 0.00 | 0.00 | 0.00 | 62 | 1010.7 |
| 20260507162017 | 67 | 233 | 2.0 | 10.0 | 0.00 | 0.00 | 0.00 | 62 | 1010.8 |
| 20260507160904 | 68 | 227 | 2.0 | 9.0 | 0.00 | 0.00 | 0.00 | 61 | 1010.6 |
| 20260507160004 | 69 | 173 | 2.0 | 10.0 | 0.00 | 0.00 | 0.00 | 59 | 1010.6 |
| 20260507155618 | 70 | 164 | 3.0 | 10.0 | 0.00 | 0.00 | 0.00 | 59 | 1010.6 |
| 20260507154721 | 69 | 162 | 4.0 | 11.0 | 0.00 | 0.00 | 0.00 | 58 | 1010.5 |
| 20260507153603 | 70 | 232 | 3.0 | 10.0 | 0.00 | 0.00 | 0.00 | 57 | 1010.5 |
| 20260507152704 | 70 | 183 | 3.0 | 8.0 | 0.00 | 0.00 | 0.00 | 59 | 1010.5 |
| 20260507151804 | 70 | 179 | 2.0 | 8.0 | 0.00 | 0.00 | 0.00 | 58 | 1010.4 |
| 20260507150904 | 70 | 165 | 4.0 | 13.0 | 0.00 | 0.00 | 0.00 | 59 | 1010.3 |
| 20260507150004 | 70 | 166 | 3.0 | 9.0 | 0.00 | 0.00 | 0.00 | 56 | 1010.3 |
| 20260507145619 | 70 | 165 | 3.0 | 9.0 | 0.00 | 0.00 | 0.00 | 57 | 1010.4 |
| 20260507144504 | 70 | 183 | 3.0 | 9.0 | 0.00 | 0.00 | 0.00 | 56 | 1010.4 |
| 20260507143604 | 69 | 166 | 4.0 | 11.0 | 0.00 | 0.00 | 0.00 | 60 | 1010.4 |
| 20260507142704 | 69 | 161 | 5.0 | 14.0 | 0.00 | 0.00 | 0.00 | 60 | 1010.4 |
| 20260507141803 | 69 | 152 | 3.0 | 12.0 | 0.00 | 0.00 | 0.00 | 63 | 1010.4 |
| 20260507140903 | 68 | 158 | 6.0 | 12.0 | 0.00 | 0.00 | 0.00 | 64 | 1010.5 |
| 20260507140004 | 69 | 150 | 4.0 | 12.0 | 0.00 | 0.00 | 0.00 | 66 | 1010.6 |
| 20260507135404 | 68 | 160 | 6.0 | 13.0 | 0.00 | 0.00 | 0.00 | 65 | 1010.6 |
| 20260507134504 | 69 | 163 | 4.0 | 13.0 | 0.00 | 0.00 | 0.00 | 64 | 1010.5 |
| 20260507133603 | 70 | 150 | 3.0 | 11.0 | 0.00 | 0.00 | 0.00 | 66 | 1010.8 |
| 20260507132703 | 69 | 140 | 3.0 | 12.0 | 0.00 | 0.00 | 0.00 | 66 | 1010.9 |
| 20260507131804 | 67 | 152 | 3.0 | 13.0 | 0.00 | 0.00 | 0.00 | 69 | 1011.1 |
| 20260507130903 | 67 | 172 | 5.0 | 13.0 | 0.00 | 0.00 | 0.00 | 66 | 1011.0 |
| 20260507130004 | 67 | 183 | 5.0 | 10.0 | 0.00 | 0.00 | 0.00 | 65 | 1011.1 |
| 20260507125403 | 67 | 173 | 6.0 | 13.0 | 0.00 | 0.00 | 0.00 | 65 | 1011.1 |
| 20260507124504 | 68 | 159 | 7.0 | 14.0 | 0.00 | 0.00 | 0.00 | 65 | 1011.2 |
| 20260507123603 | 67 | 164 | 5.0 | 12.0 | 0.00 | 0.00 | 0.00 | 65 | 1011.3 |
| 20260507122917 | 68 | 168 | 5.0 | 19.0 | 0.00 | 0.00 | 0.00 | 65 | 1011.3 |
| 20260507121804 | 68 | 167 | 2.0 | 8.0 | 0.00 | 0.00 | 0.00 | 65 | 1011.3 |
| 20260507120904 | 68 | 163 | 2.0 | 14.0 | 0.00 | 0.00 | 0.00 | 66 | 1011.4 |
| 20260507120004 | 67 | 160 | 4.0 | 10.0 | 0.00 | 0.00 | 0.00 | 68 | 1011.4 |
| 20260507115621 | 67 | 157 | 4.0 | 10.0 | 0.00 | 0.00 | 0.00 | 66 | 1011.4 |
| 20260507114504 | 67 | 164 | 5.0 | 12.0 | 0.00 | 0.00 | 0.00 | 66 | 1011.5 |
| 20260507113603 | 69 | 157 | 5.0 | 13.0 | 0.00 | 0.00 | 0.00 | 65 | 1011.5 |
| 20260507112703 | 70 | 153 | 6.0 | 16.0 | 0.00 | 0.00 | 0.00 | 64 | 1011.5 |
| 20260507111803 | 68 | 163 | 6.0 | 13.0 | 0.00 | 0.00 | 0.00 | 65 | 1011.6 |
| 20260507110904 | 68 | 156 | 3.0 | 9.0 | 0.00 | 0.00 | 0.00 | 68 | 1011.6 |
| 20260507110004 | 68 | 170 | 4.0 | 10.0 | 0.00 | 0.00 | 0.00 | 66 | 1011.6 |
| 20260507105404 | 68 | 173 | 4.0 | 10.0 | 0.00 | 0.00 | 0.00 | 65 | 1011.6 |
| 20260507104504 | 68 | 167 | 6.0 | 15.0 | 0.00 | 0.00 | 0.00 | 66 | 1011.7 |
| 20260507103603 | 67 | 159 | 6.0 | 11.0 | 0.00 | 0.00 | 0.00 | 65 | 1011.8 |
| 20260507102704 | 67 | 160 | 7.0 | 13.0 | 0.00 | 0.00 | 0.00 | 65 | 1011.9 |
| 20260507101804 | 66 | 170 | 6.0 | 12.0 | 0.00 | 0.00 | 0.00 | 68 | 1012.0 |
| 20260507100904 | 66 | 204 | 5.0 | 12.0 | 0.00 | 0.00 | 0.00 | 65 | 1012.1 |
| 20260507100004 | 65 | 165 | 3.0 | 12.0 | 0.00 | 0.00 | 0.00 | 70 | 1012.2 |
| 20260507095617 | 65 | 165 | 3.0 | 11.0 | 0.00 | 0.00 | 0.00 | 69 | 1012.3 |
| 20260507094504 | 64 | 182 | 5.0 | 10.0 | 0.00 | 0.00 | 0.00 | 70 | 1012.4 |
| 20260507093604 | 64 | 213 | 6.0 | 13.0 | 0.00 | 0.00 | 0.00 | 69 | 1012.6 |
| 20260507092704 | 65 | 186 | 5.0 | 12.0 | 0.00 | 0.00 | 0.00 | 67 | 1012.4 |
| 20260507091804 | 65 | 166 | 4.0 | 12.0 | 0.00 | 0.00 | 0.00 | 70 | 1012.5 |
| 20260507090904 | 64 | 218 | 3.0 | 11.0 | 0.00 | 0.00 | 0.00 | 73 | 1012.6 |
| 20260507090004 | 63 | 186 | 3.0 | 11.0 | 0.00 | 0.00 | 0.00 | 72 | 1012.6 |
| 20260507085403 | 63 | 188 | 3.0 | 11.0 | 0.00 | 0.00 | 0.00 | 72 | 1012.5 |
| 20260507084504 | 63 | 226 | 1.0 | 5.0 | 0.00 | 0.00 | 0.00 | 74 | 1012.6 |
| 20260507083603 | 62 | 53 | 2.0 | 10.0 | 0.00 | 0.00 | 0.00 | 77 | 1012.5 |
| 20260507082704 | 61 | 269 | 0.0 | 1.0 | 0.00 | 0.00 | 0.00 | 77 | 1012.6 |
| 20260507081804 | 61 | 0 | 0.0 | 0.0 | 0.00 | 0.00 | 0.00 | 77 | 1012.5 |
| 20260507080903 | 60 | 269 | 0.0 | 1.0 | 0.00 | 0.00 | 0.00 | 78 | 1012.5 |
| 20260507080004 | 60 | 270 | 0.0 | 2.0 | 0.00 | 0.00 | 0.00 | 78 | 1012.3 |
| 20260507075404 | 60 | 0 | 0.0 | 0.0 | 0.00 | 0.00 | 0.00 | 79 | 1012.3 |
| 20260507074503 | 60 | 0 | 0.0 | 0.0 | 0.00 | 0.00 | 0.00 | 80 | 1012.3 |
| 20260507073818 | 60 | 0 | 0.0 | 0.0 | 0.00 | 0.00 | 0.00 | 81 | 1012.2 |
| 20260507072703 | 59 | 0 | 0.0 | 0.0 | 0.00 | 0.00 | 0.00 | 80 | 1012.2 |
| 20260507071804 | 59 | 270 | 0.0 | 4.0 | 0.00 | 0.00 | 0.00 | 80 | 1012.3 |
| 20260507070904 | 59 | 270 | 1.0 | 5.0 | 0.00 | 0.00 | 0.00 | 79 | 1012.2 |
| 20260507070008 | 59 | 271 | 1.0 | 5.0 | 0.00 | 0.00 | 0.00 | 80 | 1012.0 |
| 20260507065403 | 59 | 272 | 1.0 | 6.0 | 0.00 | 0.00 | 0.00 | 80 | 1012.1 |
| 20260507064504 | 58 | 294 | 0.0 | 4.0 | 0.00 | 0.00 | 0.00 | 81 | 1012.0 |
| 20260507063603 | 58 | 0 | 0.0 | 0.0 | 0.00 | 0.00 | 0.00 | 84 | 1011.8 |
| 20260507062703 | 58 | 0 | 0.0 | 0.0 | 0.00 | 0.00 | 0.00 | 85 | 1011.7 |
| 20260507061804 | 57 | 0 | 0.0 | 0.0 | 0.00 | 0.00 | 0.00 | 86 | 1011.7 |
| 20260507060904 | 57 | 0 | 0.0 | 0.0 | 0.00 | 0.00 | 0.00 | 86 | 1011.8 |
| 20260507060004 | 57 | 0 | 0.0 | 0.0 | 0.00 | 0.00 | 0.00 | 86 | 1011.6 |
| 20260507055403 | 56 | 0 | 0.0 | 0.0 | 0.00 | 0.00 | 0.00 | 86 | 1011.6 |
| 20260507054504 | 56 | 0 | 0.0 | 0.0 | 0.00 | 0.00 | 0.00 | 87 | 1011.5 |
| 20260507053603 | 56 | 0 | 0.0 | 0.0 | 0.00 | 0.00 | 0.00 | 87 | 1011.4 |
| 20260507052703 | 56 | 0 | 0.0 | 0.0 | 0.00 | 0.00 | 0.00 | 87 | 1011.3 |
| 20260507051803 | 56 | 0 | 0.0 | 0.0 | 0.00 | 0.00 | 0.00 | 86 | 1011.3 |
| 20260507050904 | 56 | 0 | 0.0 | 0.0 | 0.00 | 0.00 | 0.00 | 85 | 1011.3 |
| 20260507050005 | 56 | 297 | 0.0 | 1.0 | 0.00 | 0.00 | 0.00 | 85 | 1011.2 |
| 20260507045403 | 56 | 297 | 0.0 | 1.0 | 0.00 | 0.00 | 0.00 | 84 | 1011.1 |
| 20260507044504 | 56 | 0 | 0.0 | 0.0 | 0.00 | 0.00 | 0.00 | 83 | 1011.1 |
| 20260507043603 | 56 | 0 | 0.0 | 0.0 | 0.00 | 0.00 | 0.00 | 83 | 1010.9 |
| 20260507042703 | 56 | 297 | 0.0 | 6.0 | 0.00 | 0.00 | 0.00 | 82 | 1010.7 |
| 20260507041804 | 56 | 297 | 2.0 | 9.0 | 0.00 | 0.00 | 0.00 | 82 | 1010.8 |
| 20260507040903 | 56 | 297 | 1.0 | 6.0 | 0.00 | 0.00 | 0.00 | 82 | 1010.7 |
| 20260507040004 | 56 | 293 | 1.0 | 6.0 | 0.00 | 0.00 | 0.00 | 82 | 1010.6 |
| 20260507035404 | 56 | 290 | 2.0 | 11.0 | 0.00 | 0.00 | 0.00 | 82 | 1010.7 |
| 20260507034718 | 56 | 285 | 3.0 | 11.0 | 0.00 | 0.00 | 0.00 | 82 | 1010.5 |
| 20260507033603 | 56 | 284 | 2.0 | 10.0 | 0.00 | 0.00 | 0.00 | 82 | 1010.5 |
| 20260507032703 | 56 | 279 | 5.0 | 9.0 | 0.00 | 0.00 | 0.00 | 81 | 1010.4 |
| 20260507031804 | 56 | 291 | 4.0 | 9.0 | 0.00 | 0.00 | 0.00 | 81 | 1010.3 |
| 20260507030903 | 56 | 295 | 4.0 | 8.0 | 0.00 | 0.00 | 0.00 | 81 | 1010.4 |
| 20260507030004 | 56 | 297 | 4.0 | 11.0 | 0.00 | 0.00 | 0.00 | 81 | 1010.4 |
| 20260507025403 | 56 | 305 | 3.0 | 10.0 | 0.00 | 0.00 | 0.00 | 81 | 1010.3 |
| 20260507024503 | 56 | 291 | 3.0 | 11.0 | 0.00 | 0.00 | 0.00 | 81 | 1010.3 |
| 20260507023603 | 56 | 288 | 3.0 | 9.0 | 0.00 | 0.00 | 0.00 | 81 | 1010.4 |
| 20260507022703 | 56 | 288 | 2.0 | 7.0 | 0.00 | 0.00 | 0.00 | 81 | 1010.3 |
| 20260507021803 | 56 | 285 | 3.0 | 12.0 | 0.00 | 0.00 | 0.00 | 82 | 1010.4 |
| 20260507020903 | 56 | 282 | 4.0 | 9.0 | 0.00 | 0.00 | 0.00 | 82 | 1010.4 |
| 20260507020004 | 55 | 279 | 3.0 | 10.0 | 0.00 | 0.00 | 0.00 | 82 | 1010.3 |
| 20260507015617 | 55 | 281 | 3.0 | 9.0 | 0.00 | 0.00 | 0.00 | 83 | 1010.4 |
| 20260507014503 | 55 | 272 | 1.0 | 5.0 | 0.00 | 0.00 | 0.00 | 84 | 1010.1 |
| 20260507013604 | 55 | 269 | 1.0 | 7.0 | 0.00 | 0.00 | 0.00 | 84 | 1010.2 |
| 20260507012703 | 56 | 0 | 0.0 | 0.0 | 0.00 | 0.00 | 0.00 | 83 | 1010.2 |
| 20260507012021 | 56 | 269 | 0.0 | 5.0 | 0.00 | 0.00 | 0.00 | 83 | 1010.1 |
| 20260507010903 | 56 | 269 | 1.0 | 6.0 | 0.00 | 0.00 | 0.00 | 82 | 1010.2 |
| 20260507010004 | 56 | 269 | 0.0 | 5.0 | 0.00 | 0.00 | 0.00 | 82 | 1010.2 |
| 20260507005403 | 57 | 269 | 0.0 | 6.0 | 0.00 | 0.00 | 0.00 | 82 | 1010.3 |
| 20260507004504 | 58 | 0 | 0.0 | 0.0 | 0.00 | 0.00 | 0.00 | 81 | 1010.3 |
| 20260507003603 | 58 | 268 | 0.0 | 5.0 | 0.00 | 0.00 | 0.00 | 80 | 1010.3 |
| 20260507002920 | 58 | 268 | 1.0 | 11.0 | 0.00 | 0.00 | 0.00 | 79 | 1010.4 |
| 20260507001803 | 59 | 269 | 2.0 | 9.0 | 0.00 | 0.00 | 0.00 | 77 | 1010.5 |
| 20260507000904 | 59 | 255 | 4.0 | 9.0 | 0.00 | 0.00 | 0.00 | 77 | 1010.3 |
| 20260507000004 | 59 | 243 | 5.0 | 10.0 | 0.00 | 0.00 | 0.00 | 77 | 1010.5 |
| 20260506235404 | 59 | 246 | 3.0 | 9.0 | 0.00 | 0.00 | 0.00 | 77 | 1010.6 |
| 20260506234721 | 59 | 214 | 2.0 | 7.0 | 0.00 | 0.00 | 0.00 | 78 | 1010.5 |
| 20260506233603 | 60 | 249 | 4.0 | 10.0 | 0.00 | 0.00 | 0.00 | 77 | 1010.7 |
| 20260506232704 | 60 | 261 | 6.0 | 10.0 | 0.00 | 0.00 | 0.00 | 77 | 1010.6 |
| 20260506231804 | 60 | 255 | 4.0 | 10.0 | 0.00 | 0.00 | 0.00 | 77 | 1010.7 |
| 20260506230904 | 59 | 265 | 4.0 | 10.0 | 0.00 | 0.00 | 0.00 | 78 | 1010.7 |
| 20260506230004 | 59 | 256 | 1.0 | 6.0 | 0.00 | 0.00 | 0.00 | 80 | 1010.6 |
| 20260506225404 | 60 | 239 | 2.0 | 7.0 | 0.00 | 0.00 | 0.00 | 79 | 1010.6 |
| 20260506224504 | 59 | 198 | 3.0 | 11.0 | 0.00 | 0.00 | 0.00 | 78 | 1010.5 |
| 20260506223603 | 59 | 250 | 5.0 | 10.0 | 0.00 | 0.00 | 0.00 | 79 | 1010.4 |
| 20260506222921 | 59 | 262 | 4.0 | 13.0 | 0.00 | 0.00 | 0.00 | 79 | 1010.3 |
| 20260506221804 | 60 | 263 | 4.0 | 9.0 | 0.00 | 0.00 | 0.00 | 80 | 1010.2 |
| 20260506221121 | 60 | 268 | 5.0 | 9.0 | 0.00 | 0.00 | 0.00 | 80 | 1010.1 |
| 20260506220022 | 60 | 293 | 3.0 | 10.0 | 0.00 | 0.00 | 0.00 | 81 | 1010.1 |
| 20260506215403 | 60 | 275 | 3.0 | 10.0 | 0.00 | 0.00 | 0.00 | 81 | 1010.0 |
| 20260506214504 | 60 | 278 | 4.0 | 9.0 | 0.00 | 0.00 | 0.00 | 80 | 1009.9 |
| 20260506213603 | 60 | 278 | 5.0 | 12.0 | 0.00 | 0.00 | 0.00 | 79 | 1010.0 |
| 20260506212703 | 60 | 275 | 4.0 | 10.0 | 0.00 | 0.00 | 0.00 | 78 | 1010.0 |
| 20260506211803 | 60 | 285 | 3.0 | 8.0 | 0.00 | 0.00 | 0.00 | 79 | 1009.9 |
| 20260506210904 | 60 | 271 | 2.0 | 6.0 | 0.00 | 0.00 | 0.00 | 79 | 1009.7 |
| 20260506210004 | 60 | 276 | 1.0 | 7.0 | 0.00 | 0.00 | 0.00 | 80 | 1009.7 |
| 20260506205403 | 60 | 280 | 2.0 | 10.0 | 0.00 | 0.00 | 0.00 | 79 | 1009.7 |
| 20260506204504 | 60 | 300 | 1.0 | 10.0 | 0.00 | 0.00 | 0.00 | 79 | 1009.5 |
| 20260506203604 | 60 | 286 | 3.0 | 10.0 | 0.00 | 0.00 | 0.00 | 78 | 1009.5 |
| 20260506202703 | 60 | 279 | 4.0 | 11.0 | 0.00 | 0.00 | 0.00 | 77 | 1009.6 |
| 20260506202020 | 60 | 252 | 2.0 | 8.0 | 0.00 | 0.00 | 0.00 | 78 | 1009.6 |
| 20260506200904 | 60 | 175 | 0.0 | 5.0 | 0.00 | 0.00 | 0.00 | 78 | 1009.4 |
| 20260506200004 | 60 | 186 | 2.0 | 8.0 | 0.00 | 0.00 | 0.00 | 78 | 1009.4 |